weather.gov     
National Weather Service

Regional Weather Roundup
NWS Homepage
This page is being discontinued on March 12, 2014.
The same data is available at this site. Please update your bookmarks.
Thank you, and we apologize for the inconvenience.
Please send an email to SR-SRH.Webmaster@noaa.gov with any concerns.


Current Version
Previous Version:    01  02  03  04  05  06  07  08  09  10  11  12  13  14  15  16  17  18  19  20  21  22  23  24  25  26  27  
[Printable]
738
ASUS46 KPQR 201810
RWROR

OREGON REGIONAL WEATHER ROUNDUP
NATIONAL WEATHER SERVICE PORTLAND OR
1100 AM PDT MON OCT 20 2014

NOTE: "FAIR" INDICATES FEW OR NO CLOUDS BELOW 12,000 FEET WITH
NO SIGNIFICANT WEATHER AND/OR OBSTRUCTIONS TO VISIBILITY.

ORZ001>013-201900-
NORTHWEST OREGON


CITY           SKY/WX    TMP DP  RH WIND       PRES   REMARKS
ASTORIA        CLOUDY    61  57  87 S8        29.75R
6HR MIN TEMP:  53; 6HR MAX TEMP:  61; 6HR PCP:  0.15;

NEWPORT        MOSUNNY   61  55  82 S13       29.82R HAZE
PORTLAND       CLOUDY    61  56  83 S9        29.79R
6HR MIN TEMP:  59; 6HR MAX TEMP:  61; 6HR PCP:  0.01;

VANCOUVER WA   PTSUNNY   61  55  81 S8        29.79R
6HR MIN TEMP:  59; 6HR MAX TEMP:  61; 6HR PCP:  0.01;

SCAPPOOSE      CLOUDY    59  56  89 S5        29.78R
6HR MIN TEMP:  57; 6HR MAX TEMP:  60; 6HR PCP:  0.03;

HILLSBORO      PTSUNNY   60  57  89 S15       29.79R
6HR MIN TEMP:  57; 6HR MAX TEMP:  60; 6HR PCP:  0.03;

AURORA         LGT RAIN  58  56  93 S9        29.81R
6HR MIN TEMP:  57; 6HR MAX TEMP:  59; 6HR PCP:  0.10;

MCMINNVILLE      N/A     60  57  89 SE6       29.78F
6HR MIN TEMP:  56; 6HR MAX TEMP:  60; 6HR PCP:  0.02;

SALEM          CLOUDY    58  55  90 S13       29.79S
6HR MIN TEMP:  58; 6HR MAX TEMP:  59; 6HR PCP:  0.18;

CORVALLIS      CLOUDY    61  55  82 S12       29.83R
EUGENE         CLOUDY    58  55  90 S7        29.82F
6HR MIN TEMP:  57; 6HR MAX TEMP:  58; 6HR PCP:  0.20;

$$

ORZ021-028-201900-
SOUTHWEST OREGON


CITY           SKY/WX    TMP DP  RH WIND       PRES   REMARKS
NORTH BEND     CLOUDY    59  55  88 SW10G24   29.83R
6HR MIN TEMP:  57; 6HR MAX TEMP:  63; 6HR PCP:  0.14;

BROOKINGS      CLOUDY    59  58  96 S15G21    29.88S FOG
ROSEBURG       LGT RAIN  60  54  80 CALM      29.83S
6HR MIN TEMP:  57; 6HR MAX TEMP:  60; 6HR PCP:  0.19;

SEXTON SUMMIT  FOG       47  47 100 S14G21    29.86R VSB<1/4
6HR MIN TEMP:  45; 6HR MAX TEMP:  47; 6HR PCP:  0.33;

MEDFORD        LGT RAIN  57  54  89 E6        29.86R FOG
6HR MIN TEMP:  55; 6HR MAX TEMP:  57; 6HR PCP:  0.38;

$$

ORZ009-041-201900-
COLUMBIA GORGE


CITY           SKY/WX    TMP DP  RH WIND       PRES   REMARKS
TROUTDALE      LGT RAIN  61  55  81 CALM      29.79R
6HR MIN TEMP:  59; 6HR MAX TEMP:  61; 6HR PCP:  0.09;

THE DALLES     CLOUDY    59  56  89 CALM      29.77F
6HR MIN TEMP:  53; 6HR MAX TEMP:  59; 6HR PCP:  0.09;

$$

ORZ029>031-042>050-061>064-201900-
EASTERN OREGON


CITY           SKY/WX    TMP DP  RH WIND       PRES   REMARKS
REDMOND        CLOUDY    63  41  44 SW7       29.79S
6HR MIN TEMP:  44; 6HR MAX TEMP:  63;

BEND           PTCLDY    61  41  48 W6        29.80F
KLAMATH FALLS  CLOUDY    54  44  69 SE10G25   29.86S
6HR MIN TEMP:  51; 6HR MAX TEMP:  55; 6HR PCP: TRACE;

LAKEVIEW       SUNNY     61  36  39 S17       29.92F
HERMISTON      SUNNY     59  47  64 NW5       29.76S
6HR MIN TEMP:  38; 6HR MAX TEMP:  59;

PENDLETON      MOSUNNY   60  46  59 CALM      29.76F
6HR MIN TEMP:  39; 6HR MAX TEMP:  60;

JOHN DAY       PTCLDY    68  29  22 SW20G30   29.83F
MEACHAM        MOSUNNY   69  34  27 VRB7      29.80F
6HR MIN TEMP:  31; 6HR MAX TEMP:  69;

LA GRANDE      MOSUNNY   66  32  28 S15       29.79F
6HR MIN TEMP:  48; 6HR MAX TEMP:  66;

BAKER CITY     SUNNY     69  27  20 E15       29.84F
6HR MIN TEMP:  39; 6HR MAX TEMP:  69;

BURNS          MOSUNNY   60  27  28 SE7       29.89F
6HR MIN TEMP:  25; 6HR MAX TEMP:  60;

ROME             N/A     67  25  20 CALM      29.89F
6HR MIN TEMP:  37; 6HR MAX TEMP:  67;

ONTARIO        SUNNY     57  37  47 CALM      29.89F
6HR MIN TEMP:  34; 6HR MAX TEMP:  57;

$$




U.S. Dept. of Commerce
NOAA National Weather Service
1325 East West Highway
Silver Spring, MD 20910
E-mail: w-nws.webmaster@noaa.gov
Page last modified: May 16, 2007
NATIONAL WEATHER SERVICE: for Safety, for Work, for Fun - FOR LIFE